Date String (YYYY-MM-DD hh:mm:ss) UTC,Instrument flags,absolute air pressure of the measurement (hPa),sample flow rate (lpm),inlet stack bypass flow (lpm),air temperature of the measurement (°C),ambient temperature measured by the external sensor (°C),aerosol sample conditioner tube jacket temperature (°C),OPC LED temperature (°C),internal box temperature (°C),relative humidity of the measurement (%),span deviation,mass concentration of particles derived from Lorenz-Mie calculation of OPC scattering (μg/m³),mass concentration of particles derived from Lorenz-Mie calculation of OPC scattering (μg/m³),mass concentration of particles derived from Lorenz-Mie calculation of OPC scattering (μg/m³)
DateTimeUTC,F1_M11,P_M11,Q1_M11,Q2_M11,T1_M11,T2_M11,T3_M11,T4_M11,T5_M11,U1_M11,ZSPAN_M11,X2_M11,X0_M11,X1_M11
2024-04-18 04:00:00,SystemResetWarning,0830.7,5.00,000.00,026.2,025.3,000.0,034.9,028.1,018.3,0000.0,0003.41,0007.08,0003.12
2024-04-18 04:01:00,SystemResetWarning,0830.6,5.00,000.00,026.2,025.3,000.0,034.8,028.1,018.3,0000.0,0003.41,0007.35,0003.12
2024-04-18 04:02:00,SystemResetWarning,0830.6,4.99,000.00,026.2,025.2,000.0,034.8,028.1,018.3,0000.0,0003.40,0006.40,0003.12
2024-04-18 04:03:00,SystemResetWarning,0830.6,5.01,000.00,026.2,025.3,000.0,034.8,028.0,018.3,0000.0,0003.39,0006.58,0003.11
2024-04-18 04:04:00,SystemResetWarning,0830.7,5.01,000.00,026.1,025.3,000.0,034.8,028.1,018.3,0000.0,0003.41,0006.79,0003.11
2024-04-18 04:05:00,SystemResetWarning,0830.7,5.00,000.00,026.2,025.3,000.0,034.8,028.1,018.3,0000.0,0003.42,0006.84,0003.11
2024-04-18 04:06:00,SystemResetWarning,0830.8,4.99,000.00,026.2,025.3,000.0,034.8,028.1,018.3,0000.0,0003.41,0006.93,0003.12
2024-04-18 04:07:00,SystemResetWarning,0830.9,5.00,000.00,026.2,025.3,000.0,034.8,028.1,018.3,0000.0,0003.39,0006.95,0003.12
2024-04-18 04:08:00,SystemResetWarning,0830.9,5.00,000.00,026.2,025.3,000.0,034.8,028.1,018.2,0000.0,0003.37,0006.78,0003.11
2024-04-18 04:09:00,SystemResetWarning,0831.0,5.00,000.00,026.2,025.3,000.0,034.8,028.1,018.1,0000.0,0003.36,0006.72,0003.09
2024-04-18 04:10:00,SystemResetWarning,0831.0,5.00,000.00,026.1,025.3,000.0,034.8,028.0,018.1,0000.0,0003.32,0006.69,0003.05
2024-04-18 04:11:00,SystemResetWarning,0831.1,5.00,000.00,026.1,025.3,000.0,034.8,028.0,018.1,0000.0,0003.32,0007.07,0003.04
2024-04-18 04:12:00,SystemResetWarning,0831.0,5.01,000.00,026.1,025.3,000.0,034.8,028.0,018.2,0000.0,0003.33,0007.38,0003.05
2024-04-18 04:13:00,SystemResetWarning,0831.1,5.00,000.00,026.1,025.2,000.0,034.8,028.0,018.2,0000.0,0003.34,0007.41,0003.04
2024-04-18 04:14:00,SystemResetWarning,0831.1,5.00,000.00,026.1,025.2,000.0,034.8,028.0,018.2,0000.0,0003.33,0007.28,0003.04
2024-04-18 04:15:00,SystemResetWarning,0831.1,4.99,000.00,026.1,025.2,000.0,034.8,028.0,018.2,0000.0,0003.30,0007.00,0003.04
2024-04-18 04:16:00,SystemResetWarning,0831.1,5.00,000.00,026.1,025.2,000.0,034.8,028.0,018.2,0000.0,0003.28,0007.26,0003.02
2024-04-18 04:17:00,SystemResetWarning,0831.2,5.00,000.00,026.1,025.2,000.0,034.8,028.0,018.1,0000.0,0003.28,0007.35,0003.00
2024-04-18 04:18:00,SystemResetWarning,0831.1,5.00,000.00,026.1,025.2,000.0,034.8,028.0,018.1,0000.0,0003.29,0007.41,0002.98
2024-04-18 04:19:00,SystemResetWarning,0831.1,5.00,000.00,026.1,025.2,000.0,034.8,028.0,018.1,0000.0,0003.30,0007.41,0002.97
2024-04-18 04:20:00,SystemResetWarning,0831.2,5.00,000.00,026.1,025.2,000.0,034.8,028.0,018.1,0000.0,0003.30,0007.43,0002.95
2024-04-18 04:21:00,SystemResetWarning,0831.2,5.01,000.00,026.1,025.2,000.0,034.8,028.0,018.1,0000.0,0003.31,0008.06,0002.95
2024-04-18 04:22:00,SystemResetWarning,0831.2,5.01,000.00,026.1,025.2,000.0,034.8,028.0,018.0,0000.0,0003.29,0008.32,0002.93
2024-04-18 04:23:00,SystemResetWarning,0831.2,5.00,000.00,026.1,025.1,000.0,034.8,027.9,017.9,0000.0,0003.26,0007.35,0002.90
2024-04-18 04:24:00,SystemResetWarning,0831.2,4.99,000.00,026.0,025.1,000.0,034.7,027.9,017.7,0000.0,0003.26,0007.63,0002.86
2024-04-18 04:25:00,SystemResetWarning,0831.2,4.99,000.00,026.0,025.1,000.0,034.7,027.9,017.6,0000.0,0003.25,0009.42,0002.81
2024-04-18 04:26:00,SystemResetWarning,0831.3,5.01,000.00,026.0,025.1,000.0,034.7,027.9,017.4,0000.0,0003.24,0009.50,0002.73
2024-04-18 04:27:00,SystemResetWarning,0831.3,5.01,000.00,026.0,025.1,000.0,034.7,027.9,017.2,0000.0,0003.20,0009.32,0002.67
2024-04-18 04:28:00,SystemResetWarning,0831.4,5.00,000.00,026.0,025.0,000.0,034.7,027.9,017.2,0000.0,0003.16,0009.15,0002.60
2024-04-18 04:29:00,SystemResetWarning,0831.4,4.99,000.00,026.0,025.1,000.0,034.7,027.9,017.1,0000.0,0003.12,0009.04,0002.52
2024-04-18 04:30:00,SystemResetWarning,0831.5,5.00,000.00,026.0,025.0,000.0,034.7,027.9,017.1,0000.0,0003.06,0009.81,0002.44
2024-04-18 04:31:00,SystemResetWarning,0831.5,5.00,000.00,026.0,025.0,000.0,034.7,027.9,017.2,0000.0,0002.94,0009.89,0002.36
2024-04-18 04:32:00,SystemResetWarning,0831.5,5.01,000.00,026.0,025.0,000.0,034.7,027.9,017.2,0000.0,0002.85,0009.82,0002.28
2024-04-18 04:33:00,SystemResetWarning,0831.5,5.01,000.00,025.9,025.0,000.0,034.7,027.8,017.3,0000.0,0002.83,0010.25,0002.22
2024-04-18 04:34:00,SystemResetWarning,0831.5,5.00,000.00,025.9,025.0,000.0,034.7,027.8,017.3,0000.0,0002.81,0010.92,0002.18
2024-04-18 04:35:00,SystemResetWarning,0831.5,5.00,000.00,025.9,025.0,000.0,034.7,027.8,017.3,0000.0,0002.76,0010.80,0002.15
2024-04-18 04:36:00,SystemResetWarning,0831.6,4.99,000.00,025.9,025.0,000.0,034.6,027.8,017.3,0000.0,0002.77,0009.55,0002.14
2024-04-18 04:37:00,SystemResetWarning,0831.6,5.00,000.00,025.9,025.0,000.0,034.6,027.8,017.3,0000.0,0002.73,0009.78,0002.13
2024-04-18 04:38:00,SystemResetWarning,0831.5,4.99,000.00,025.9,025.0,000.0,034.6,027.8,017.3,0000.0,0002.75,0009.97,0002.15
2024-04-18 04:39:00,SystemResetWarning,0831.5,4.99,000.00,025.9,024.9,000.0,034.6,027.8,017.2,0000.0,0002.78,0010.18,0002.16
2024-04-18 04:40:00,SystemResetWarning,0831.5,5.00,000.00,025.9,025.0,000.0,034.6,027.8,017.3,0000.0,0002.78,0010.63,0002.18
2024-04-18 04:41:00,SystemResetWarning,0831.6,5.01,000.00,025.9,024.9,000.0,034.6,027.8,017.3,0000.0,0002.77,0011.21,0002.18
2024-04-18 04:42:00,SystemResetWarning,0831.6,5.01,000.00,025.9,024.9,000.0,034.6,027.8,017.2,0000.0,0002.78,0011.84,0002.19
2024-04-18 04:43:00,SystemResetWarning,0831.6,5.00,000.00,025.9,024.9,000.0,034.6,027.7,017.1,0000.0,0002.76,0011.84,0002.19
2024-04-18 04:44:00,SystemResetWarning,0831.6,4.99,000.00,025.8,024.9,000.0,034.6,027.7,017.0,0000.0,0002.74,0010.31,0002.20
2024-04-18 04:45:00,SystemResetWarning,0831.6,5.00,000.00,025.8,024.9,000.0,034.6,027.7,017.0,0000.0,0002.72,0009.73,0002.19
2024-04-18 04:46:00,SystemResetWarning,0831.6,5.01,000.00,025.8,024.8,000.0,034.6,027.7,016.9,0000.0,0002.72,0010.03,0002.17
2024-04-18 04:47:00,SystemResetWarning,0831.6,5.00,000.00,025.8,024.8,000.0,034.5,027.7,016.9,0000.0,0002.64,0010.31,0002.14
2024-04-18 04:48:00,SystemResetWarning,0831.6,4.99,000.00,025.8,024.8,000.0,034.5,027.6,017.0,0000.0,0002.60,0009.84,0002.12
2024-04-18 04:49:00,SystemResetWarning,0831.7,5.00,000.00,025.8,024.7,000.0,034.5,027.6,017.0,0000.0,0002.59,0009.85,0002.09
2024-04-18 04:50:00,SystemResetWarning,0831.7,5.00,000.00,025.7,024.7,000.0,034.5,027.6,017.0,0000.0,0002.58,0009.89,0002.06
2024-04-18 04:51:00,SystemResetWarning,0831.7,5.01,000.00,025.7,024.7,000.0,034.5,027.6,017.0,0000.0,0002.57,0010.07,0002.04
2024-04-18 04:52:00,SystemResetWarning,0831.7,5.01,000.00,025.7,024.7,000.0,034.5,027.6,017.0,0000.0,0002.52,0008.66,0002.01
2024-04-18 04:53:00,SystemResetWarning,0831.7,5.00,000.00,025.7,024.7,000.0,034.5,027.6,017.0,0000.0,0002.51,0008.19,0001.97
2024-04-18 04:54:00,SystemResetWarning,0831.7,5.00,000.00,025.7,024.7,000.0,034.5,027.5,017.0,0000.0,0002.51,0008.43,0001.92
2024-04-18 04:55:00,SystemResetWarning,0831.9,4.99,000.00,025.7,024.6,000.0,034.4,027.5,017.0,0000.0,0002.47,0008.93,0001.86
2024-04-18 04:56:00,SystemResetWarning,0831.9,5.00,000.00,025.6,024.6,000.0,034.4,027.5,017.0,0000.0,0002.45,0009.17,0001.79
2024-04-18 04:57:00,SystemResetWarning,0832.0,5.00,000.00,025.6,024.6,000.0,034.4,027.5,017.0,0000.0,0002.38,0009.29,0001.73
2024-04-18 04:58:00,SystemResetWarning,0832.0,4.99,000.00,025.6,024.6,000.0,034.4,027.5,017.0,0000.0,0002.39,0009.46,0001.69
2024-04-18 04:59:00,SystemResetWarning,0832.1,5.00,000.00,025.6,024.6,000.0,034.4,027.5,016.9,0000.0,0002.34,0010.31,0001.64
